Elefsis, Greece

7:05 AM EEST on June 27, 2017 (GMT +0300)
Elefsis Air Base

Weather History for LGEL - April, 2013

Change the Weather History Date:

Thursday, April 11, 2013

  Actual Average Record
Temperature  
Mean Temperature 62 °F -  
Max Temperature 75 °F 70 °F 77 °F (2007)
Min Temperature 50 °F 52 °F 39 °F (1997)
Degree Days  
Heating Degree Days 2    
Growing Degree Days 12 (Base 50)    
Moisture  
Dew Point 46 °F    
Average Humidity 56    
Maximum Humidity 77    
Minimum Humidity 29    
Precipitation  
Precipitation 0.00 in - - ()
Sea Level Pressure  
Sea Level Pressure 29.94 in    
Wind  
Wind Speed 3 mph ()    
Max Wind Speed 13 mph    
Max Gust Speed -    
Visibility 6.2 miles    
Events      
Averages and records for this station are not official NWS values.
T = Trace of Precipitation, MM = Missing Value Source: Averaged Metar Reports

Daily Weather History Graph

Daily Weather History Graph

Search for Another Location

Airport or City:

Trip Planner

Search our weather history database for the weather conditions in past years. The results will help you decide how hot, cold, wet, or windy it might be!

Date:

Astronomy

Apr. 11, 2013 Rise Set
Actual Time 6:56 AM EEST 7:58 PM EEST
Civil Twilight 6:29 AM EEST 8:25 PM EEST
Nautical Twilight 5:57 AM EEST 8:57 PM EEST
Astronomical Twilight 5:23 AM EEST 9:30 PM EEST
Moon 7:17 AM EEST (4/11) 9:12 PM EEST (4/11)
Length of Visible Light 13h 55m
Length of Day
13h 01m
New Moon, 1% of the Moon is Illuminated
Apr 11
New Moon
Apr 18
First Quarter
Apr 25
Full
May 2
Last Quarter
May 10
New

Hourly Weather History & Observations

Time (EEST) Temp. Dew Point Humidity Pressure Visibility Wind Dir Wind Speed Gust Speed Precip Events Conditions
12:50 AM 55.4 °F 44.6 °F 67% 29.95 in 6.2 mi Calm Calm - N/A   Partly Cloudy
1:50 AM 53.6 °F 42.8 °F 67% 29.92 in 6.2 mi Calm Calm - N/A   Partly Cloudy
2:50 AM 53.6 °F 42.8 °F 67% 29.92 in 6.2 mi Calm Calm - N/A   Partly Cloudy
4:50 AM 51.8 °F 44.6 °F 76% 29.92 in 6.2 mi Calm Calm - N/A   Partly Cloudy
5:50 AM 51.8 °F 44.6 °F 76% 29.92 in 6.2 mi NNW 6.9 mph - N/A   Partly Cloudy
6:20 AM 51.8 °F 44.6 °F 76% 29.92 in 6.2 mi NNW 6.9 mph - N/A   Partly Cloudy
6:50 AM 50.0 °F 41.0 °F 71% 29.92 in - Calm Calm - N/A   Clear
7:20 AM 50.0 °F 41.0 °F 71% 29.92 in - Calm Calm - N/A   Clear
7:50 AM 51.8 °F 44.6 °F 76% 29.92 in - Calm Calm - N/A   Clear
8:20 AM 55.4 °F 46.4 °F 72% 29.92 in - Calm Calm - N/A   Clear
8:50 AM 59.0 °F 48.2 °F 67% 29.92 in - Calm Calm - N/A   Clear
9:20 AM 62.6 °F 48.2 °F 59% 29.92 in - Calm Calm - N/A   Clear
9:50 AM 62.6 °F 46.4 °F 55% 29.92 in - Variable 3.5 mph - N/A   Clear
10:20 AM 64.4 °F 46.4 °F 52% 29.92 in - Variable 3.5 mph - N/A   Clear
10:50 AM 66.2 °F 46.4 °F 49% 29.92 in - SSE 4.6 mph - N/A   Clear
11:20 AM 69.8 °F 46.4 °F 43% 29.92 in - Variable 3.5 mph - N/A   Clear
11:50 AM 71.6 °F 37.4 °F 29% 29.95 in - NNW 6.9 mph - N/A   Clear
12:20 PM 69.8 °F 46.4 °F 43% 29.95 in - SSW 8.1 mph - N/A   Clear
12:50 PM 71.6 °F 37.4 °F 29% 29.95 in 6.2 mi SSW 6.9 mph - N/A   Partly Cloudy
1:20 PM 71.6 °F 46.4 °F 41% 29.95 in 6.2 mi SW 6.9 mph - N/A   Partly Cloudy
1:50 PM 71.6 °F 46.4 °F 41% 29.92 in 6.2 mi SW 8.1 mph - N/A   Partly Cloudy
2:20 PM 71.6 °F 44.6 °F 38% 29.92 in 6.2 mi SSW 12.7 mph - N/A   Partly Cloudy
2:50 PM 73.4 °F 41.0 °F 31% 29.92 in 6.2 mi SSW 11.5 mph - N/A   Partly Cloudy
3:20 PM 73.4 °F 41.0 °F 31% 29.92 in 6.2 mi SSW 9.2 mph - N/A   Partly Cloudy
3:50 PM 73.4 °F 41.0 °F 31% 29.92 in 6.2 mi SSW 9.2 mph - N/A   Partly Cloudy
4:20 PM 73.4 °F 41.0 °F 31% 29.92 in 6.2 mi SW 8.1 mph - N/A   Partly Cloudy
4:50 PM 75.2 °F 41.0 °F 29% 29.92 in 6.2 mi SSW 8.1 mph - N/A   Scattered Clouds
5:20 PM 71.6 °F 42.8 °F 35% 29.92 in 6.2 mi South 11.5 mph - N/A   Scattered Clouds
5:50 PM 69.8 °F 46.4 °F 43% 29.92 in 6.2 mi South 11.5 mph - N/A   Partly Cloudy
6:20 PM 68.0 °F 50.0 °F 52% 29.95 in 6.2 mi South 11.5 mph - N/A   Partly Cloudy
6:50 PM 66.2 °F 50.0 °F 56% 29.95 in 6.2 mi South 8.1 mph - N/A   Partly Cloudy
7:20 PM 64.4 °F 50.0 °F 59% 29.95 in 6.2 mi SSW 4.6 mph - N/A   Partly Cloudy
7:50 PM 62.6 °F 51.8 °F 68% 29.98 in 6.2 mi SSW 4.6 mph - N/A   Partly Cloudy
8:20 PM 62.6 °F 51.8 °F 68% 29.98 in - Variable 3.5 mph - N/A   Clear
8:50 PM 62.6 °F 51.8 °F 68% 29.98 in - Calm Calm - N/A   Clear
9:20 PM 60.8 °F 51.8 °F 72% 29.98 in - Calm Calm - N/A   Clear
9:50 PM 59.0 °F 51.8 °F 77% 30.01 in - Calm Calm - N/A   Clear
10:20 PM 57.2 °F 50.0 °F 77% 30.04 in - Calm Calm - N/A   Clear
10:50 PM 55.4 °F 48.2 °F 77% 30.04 in - Calm Calm - N/A   Clear
11:50 PM 53.6 °F 46.4 °F 77% 30.04 in - North 4.6 mph - N/A   Clear